EDT,Max TemperatureF,Mean TemperatureF,Min TemperatureF,Max Dew PointF,MeanDew PointF,Min DewpointF,Max Humidity, Mean Humidity, Min Humidity, Max Sea Level PressureIn, Mean Sea Level PressureIn, Min Sea Level PressureIn, Max VisibilityMiles, Mean VisibilityMiles, Min VisibilityMiles, Max Wind SpeedMPH, Mean Wind SpeedMPH, Max Gust SpeedMPH,PrecipitationIn, CloudCover, Events, WindDirDegrees
2013-9-1,86,77,68,72,68,66,90,76,61,29.84,29.80,29.76,10,10,5,15,5,20,0.03,4,Rain-Thunderstorm,213
2013-9-2,86,75,63,70,67,59,97,74,51,29.91,29.84,29.78,10,5,1,14,6,17,0.00,4,,260
2013-9-3,78,67,55,59,55,52,93,70,46,30.07,30.02,29.92,10,10,10,14,5,20,0.00,1,,360
2013-9-4,84,68,52,59,55,50,93,67,40,30.16,30.11,30.07,10,8,1,10,2,17,0.00,0,,292
2013-9-5,87,72,57,64,59,54,93,67,40,30.19,30.16,30.13,10,8,0,8,3,23,0.00,1,Fog-Rain,27
2013-9-6,84,70,56,62,55,51,84,62,39,30.23,30.17,30.09,10,10,10,10,4,13,0.00,0,,102
2013-9-7,88,73,58,66,61,54,90,67,43,30.10,30.03,29.95,10,10,10,14,5,18,T,1,,205
2013-9-8,91,78,64,70,66,62,93,69,44,30.00,29.96,29.92,10,7,2,10,3,20,0.00,2,,128
2013-9-9,94,81,67,71,68,64,90,66,41,30.01,29.98,29.93,10,9,4,18,8,23,0.00,2,,183
2013-9-10,96,84,71,74,70,66,87,64,40,30.11,30.07,30.00,10,9,5,22,7,30,T,2,Rain-Thunderstorm,191
2013-9-11,96,84,71,72,67,62,90,62,33,30.14,30.08,30.01,10,9,5,16,7,22,0.00,0,,212
2013-9-12,83,73,63,72,67,50,93,67,40,30.04,29.98,29.87,10,6,2,17,7,29,0.63,5,Rain,285
2013-9-13,70,60,49,54,47,41,89,63,36,30.10,30.06,29.98,10,10,10,21,9,28,0.00,1,,3
2013-9-14,73,58,43,47,41,34,89,57,25,30.20,30.14,30.09,10,10,10,9,4,16,0.00,0,,77
2013-9-15,79,62,45,58,48,42,92,62,32,30.14,30.08,30.01,10,10,10,16,5,22,0.00,3,,186
2013-9-16,72,63,53,57,54,49,84,67,49,30.29,30.21,30.08,10,10,10,14,8,18,0.00,6,,40
2013-9-17,78,65,52,55,50,48,89,63,37,30.32,30.25,30.16,10,10,10,13,7,21,0.00,0,,87
2013-9-18,84,71,58,65,59,52,84,68,51,30.15,30.10,30.03,10,10,8,13,4,16,T,4,,163
2013-9-19,82,75,67,70,66,64,93,79,65,30.10,30.04,29.94,10,6,2,17,8,20,0.89,5,Rain-Thunderstorm,184
2013-9-20,85,77,69,71,68,66,93,78,62,29.96,29.86,29.80,10,7,2,16,8,24,0.24,5,Rain,228
2013-9-21,75,64,53,66,55,46,93,66,38,29.90,29.82,29.77,10,9,2,18,8,25,0.24,4,Rain,325
2013-9-22,71,59,46,50,46,42,93,64,35,30.02,29.97,29.91,10,10,10,12,4,15,0.00,1,,24
2013-9-23,74,60,46,48,45,43,86,61,35,30.11,30.06,30.03,10,10,10,13,6,17,0.00,0,,88
2013-9-24,79,63,47,56,50,44,86,64,42,30.08,29.99,29.91,10,10,10,10,5,15,0.00,1,,99
2013-9-25,82,69,55,56,52,47,80,58,36,29.93,29.89,29.86,10,10,10,12,5,18,0.00,1,,62
2013-9-26,55,52,48,51,47,46,93,85,77,30.03,29.98,29.94,10,6,2,6,2,,0.00,0,,40
2013-9-27,85,67,49,56,49,44,86,56,25,30.17,30.12,30.07,10,10,10,7,3,8,0.00,0,,89
2013-9-28,84,67,49,57,53,47,89,63,37,30.17,30.09,30.04,10,9,4,15,6,21,0.00,2,,172
2013-9-29,64,62,61,61,58,55,93,83,73,30.04,30.02,30.00,10,7,2,12,8,,0.34,6,Rain,186
2013-9-30,,,,,,,,,,30.03,30.00,29.96,,,,,,,0.00,,,-1